Location: Liberec
(50.7830°N, 15.0500°E)
Time: 08:18:01
(UTC+02:00)

HTV-X1 - Pass Details

Date: 23 May 2026
Orbit: 368 x 378 km, 51.6° (Epoch: 26 May)

Event Time Altitude Azimuth Distance (km) Brightness Sun altitude
Rises 21:48:49 0° 284° (WNW) 2,219 ? -7.5°
Reaches altitude 10° 21:51:03 10° 271° (W) 1,367 ? -7.7°
Maximum altitude 21:53:38 25° 213° (SSW) 790 ? -8.0°
Enters shadow 21:56:06 11° 156° (SSE) 1,323 ? -8.2°
